Location: Unspecified
(0.0000°N, 0.0000°E)
Time: 17:54:47
(UTC+00:00)

STARLINK 1061 - Pass Details

Date: 24 January 2020
Orbit: 548 x 551 km, 53.0° (Epoch: 17 January)

Event Time Altitude Azimuth Distance (km) Brightness Sun altitude
Exits shadow 05:07:02 14° 342° (NNW) 1,584 5.6 -15.3°
Drops below altitude 10° 05:07:54 10° 352° (N) 1,807 6.0 -15.1°
Sets 05:10:36 0° 9° (N) 2,696 7.0 -14.4°
